Location: Hilton Head Island
(32.2163°N, 80.7526°W)
Time: 21:48:20
(UTC-04:00)

Tiros 1 despin weight - Pass Details

Date: 21 February 2026
Orbit: 556 x 593 km, 48.2° (Epoch: 10 March)

Event Time Altitude Azimuth Distance (km) Brightness Sun altitude
Rises 18:43:17 0° 320° (NW) 2,732 ? -6.9°
Reaches altitude 10° 18:46:05 10° 339° (NNW) 1,835 ? -7.5°
Maximum altitude 18:49:05 19° 24° (NNE) 1,365 ? -8.1°
Enters shadow 18:51:58 11° 69° (ENE) 1,806 ? -8.7°
Drops below altitude 10° 18:52:05 10° 70° (ENE) 1,837 - -8.7°
Sets 18:54:53 0° 89° (E) 2,734 - -9.3°
